FW3054 Weather Reports


time (UTC)temp
C
wind
direction
speed
KPH
gust
KPH
rain 1hr
cm
rain 24hr
cm
rain mn
cm
humidity
%
barometer
mb
20260503204547 20 23 3.2 6.4 0.00 0.00 0.00 32 1017.4
20260503203522 20 135 1.6 3.2 0.00 0.00 0.00 32 1017.5
20260503202522 20 0 1.6 4.8 0.00 0.00 0.00 33 1017.5
20260503201613 20 113 1.6 3.2 0.00 0.00 0.00 34 1017.8
20260503200522 20 0.0 1.6 0.00 0.00 0.00 34 1018.0
20260503195547 20 135 1.6 3.2 0.00 0.00 0.00 33 1018.3
20260503194547 20 0.0 1.6 0.00 0.00 0.00 34 1018.2
20260503193547 19 0.0 1.6 0.00 0.00 0.00 36 1018.2
20260503192522 19 23 3.2 6.4 0.00 0.00 0.00 33 1018.4
20260503191547 19 23 1.6 4.8 0.00 0.00 0.00 35 1018.6
20260503190523 19 0 1.6 6.4 0.00 0.00 0.00 35 1018.7
20260503185522 18 23 1.6 9.7 0.00 0.00 0.00 36 1018.7
20260503184522 19 23 1.6 3.2 0.00 0.00 0.00 34 1018.9
20260503183522 19 135 1.6 3.2 0.00 0.00 0.00 36 1019.0
20260503182522 17 0 1.6 3.2 0.00 0.00 0.00 37 1018.9
20260503181522 17 23 4.8 11.3 0.00 0.00 0.00 37 1019.0
20260503180522 17 23 1.6 6.4 0.00 0.00 0.00 37 1019.2
20260503175522 17 23 1.6 6.4 0.00 0.00 0.00 37 1019.4
20260503174547 16 23 3.2 8.0 0.00 0.00 0.00 37 1019.3
20260503173522 16 23 3.2 9.7 0.00 0.00 0.00 40 1019.4
20260503172522 16 0 4.8 8.0 0.00 0.00 0.00 38 1019.6
20260503171547 17 23 1.6 6.4 0.00 0.00 0.00 38 1019.9
20260503170547 17 23 1.6 4.8 0.00 0.00 0.00 40 1020.1
20260503150522 11 0.0 1.6 0.00 0.00 0.00 52 1020.9
20260503130521 7 0.0 3.2 0.00 0.00 0.00 72 1020.4
20260503110546 3 0.0 0.0 0.00 0.00 0.00 86 1018.9
20260503081546 4 0.0 0.0 0.00 0.00 0.00 83 1017.3
20260503080521 4 0.0 0.0 0.00 0.00 0.00 82 1017.4
20260503072521 5 0.0 1.6 0.00 0.00 0.00 80 1017.0
20260503071521 5 0.0 0.0 0.00 0.00 0.00 80 1017.1
20260503070521 5 0.0 0.0 0.00 0.00 0.00 80 1016.9
20260503054521 6 0.0 0.0 0.00 0.00 0.00 75 1016.7
20260503053546 6 0.0 1.6 0.00 0.00 0.00 75 1016.7
20260503052546 6 0.0 0.0 0.00 0.00 0.00 74 1016.9
20260503051546 6 0.0 1.6 0.00 0.00 0.00 74 1016.7
20260503050546 6 0.0 0.0 0.00 0.00 0.00 73 1016.5
20260503045520 6 0.0 1.6 0.00 0.00 0.00 73 1016.6
20260503044520 6 0.0 0.0 0.00 0.00 0.00 72 1016.6
20260503043520 6 0.0 1.6 0.00 0.00 0.00 72 1016.3
20260503042521 6 0.0 0.0 0.00 0.00 0.00 72 1016.4
20260503041520 6 0.0 1.6 0.00 0.00 0.00 71 1016.3
20260503040520 7 0.0 0.0 0.00 0.00 0.00 70 1016.0
20260503035521 7 0.0 1.6 0.00 0.00 0.00 69 1015.8
20260503034521 7 0.0 1.6 0.00 0.00 0.00 68 1015.7
20260503033520 7 0.0 1.6 0.00 0.00 0.00 66 1015.5
20260503032521 7 0.0 0.0 0.00 0.00 0.00 65 1015.5
20260503031521 8 0.0 0.0 0.00 0.00 0.00 64 1015.3
20260503030521 8 0.0 0.0 0.00 0.00 0.00 63 1015.4
20260503025521 8 0.0 0.0 0.00 0.00 0.00 62 1015.4
20260503024520 8 0.0 0.0 0.00 0.00 0.00 62 1015.4
20260503023520 8 0.0 0.0 0.00 0.00 0.00 61 1015.3
20260503022520 9 0.0 0.0 0.00 0.00 0.00 60 1015.6
20260503021521 9 0.0 1.6 0.00 0.00 0.00 60 1015.5
20260503020521 10 0.0 0.0 0.00 0.00 0.00 57 1015.4
20260503015520 10 0.0 0.0 0.00 0.00 0.00 56 1015.1
20260503014521 10 0.0 4.8 0.00 0.00 0.00 53 1014.9
20260503013520 10 23 1.6 4.8 0.00 0.00 0.00 52 1014.8
20260503012521 10 0.0 4.8 0.00 0.00 0.00 53 1014.8
20260503011520 10 0 1.6 6.4 0.00 0.00 0.00 51 1014.6
20260503010521 11 23 1.6 3.2 0.00 0.00 0.00 51 1014.4
20260503005520 11 0.0 4.8 0.00 0.00 0.00 52 1014.2
20260503004520 11 23 1.6 4.8 0.00 0.00 0.00 51 1014.3
20260503003520 11 0.0 1.6 0.00 0.00 0.00 50 1014.2
20260503002520 11 0.0 4.8 0.00 0.00 0.00 52 1014.0
20260503001520 12 0.0 3.2 0.00 0.00 0.00 47 1013.9
20260503000610 12 45 1.6 4.8 0.00 0.00 0.00 45 1013.9
20260502235545 12 23 1.6 4.8 0.00 0.00 0.00 44 1013.6
20260502234522 12 23 3.2 9.7 0.00 0.00 0.00 43 1013.4
20260502233522 13 23 1.6 11.3 0.00 0.00 0.00 41 1013.5
20260502232522 13 23 1.6 4.8 0.00 0.00 0.00 41 1013.4
20260502231522 13 23 1.6 6.4 0.00 0.00 0.00 40 1013.3
20260502230612 13 0 3.2 11.3 0.00 0.00 0.00 39 1013.2
20260502225522 13 23 1.6 8.0 0.00 0.00 0.00 39 1013.3
20260502224547 13 23 1.6 8.0 0.00 0.00 0.00 42 1013.2
20260502223522 13 23 1.6 3.2 0.00 0.00 0.00 42 1013.2
20260502222522 13 23 1.6 4.8 0.00 0.00 0.00 42 1013.1
20260502221548 13 23 3.2 9.7 0.00 0.00 0.00 42 1013.0
20260502220522 13 23 1.6 6.4 0.00 0.00 0.00 41 1012.9
20260502215522 13 23 3.2 12.9 0.00 0.00 0.00 40 1012.9
20260502214547 13 23 3.2 6.4 0.00 0.00 0.00 41 1012.6
20260502213522 13 23 3.2 8.0 0.00 0.00 0.00 40 1012.6
20260502212522 14 23 3.2 6.4 0.00 0.00 0.00 39 1012.6
20260502211547 14 23 3.2 8.0 0.00 0.00 0.00 39 1012.3
20260502210612 15 23 3.2 6.4 0.00 0.00 0.00 38 1012.4
20260502205522 15 23 3.2 6.4 0.00 0.00 0.00 37 1012.4